Theta_e
302 298 295 299 299 300 302 300 299 301 304 309 313 314 316 317 316 317 317 319 319 320 324 323 324 326 324 323 322 322 322 323 323 322 321 321 318 323 324 324 325 324 323 321
300 296 303 304 304 304 302 299 297 301 306 308 308 308 311 315 316 316 316 316 317 318 319 320 320 321 321 320 319 318 318 318 320 322 320 320 319 322 322 322 321 324 324 323
299 302 307 306 303 302 299 298 298 298 302 309 306 303 309 313 314 315 315 316 316 315 313 314 313 314 315 315 317 317 316 315 316 317 318 318 319 320 320 320 320 323 323 323
301 306 306 303 303 302 296 302 302 300 296 290 298 290 305 309 307 310 310 310 311 312 312 311 311 311 313 314 316 316 317 317 318 317 317 314 314 312 316 317 319 316 316 318
300 303 304 303 303 305 300 303 300 300 295 292 297 296 303 310 303 305 307 307 307 308 308 309 310 312 314 314 315 315 315 314 315 314 314 314 313 314 315 315 312 311 312 312
306 312 309 307 308 307 307 301 298 295 292 288 296 298 301 305 305 305 305 305 305 305 307 309 311 312 312 315 315 313 310 309 310 311 311 310 309 309 306 305 305 306 307 311
305 306 310 311 305 306 301 293 287 287 286 287 298 298 301 307 307 306 303 303 304 307 306 306 306 307 308 307 308 308 306 306 306 305 305 305 309 308 304 305 306 304 306 308
297 296 305 307 303 299 297 294 287 282 284 288 301 294 300 305 308 307 305 303 305 305 305 305 305 307 309 307 308 304 304 303 303 303 303 304 305 304 307 308 307 309 309 310
296 299 308 308 305 303 299 294 295 291 291 287 296 301 306 307 305 305 303 304 303 304 303 303 304 305 306 305 304 303 302 302 302 302 302 303 304 304 306 305 306 310 310 311
305 295 306 307 307 306 301 302 293 291 284 283 291 293 296 303 303 304 303 300 301 303 303 304 305 304 302 302 301 302 302 300 301 302 301 303 302 302 302 304 306 305 305 306
303 298 299 302 298 298 298 297 296 293 291 285 284 292 305 304 304 303 303 304 304 305 305 303 302 301 300 300 299 299 300 300 301 301 302 300 300 301 302 302 304 304 304 309
302 297 292 296 303 305 300 298 297 289 290 294 291 292 305 306 307 304 302 305 304 303 302 299 299 299 299 298 300 300 300 300 300 300 301 302 300 301 301 300 303 304 304 305
302 295 290 293 296 299 297 301 299 296 293 290 287 291 304 307 306 307 305 306 303 300 298 298 298 297 298 299 300 301 301 301 301 300 299 302 301 300 300 302 303 303 303 304
310 299 294 289 293 296 297 301 301 295 288 293 295 296 300 302 303 304 304 302 298 298 299 299 297 296 298 300 301 301 303 303 301 301 300 300 300 301 301 301 302 302 303 306
303 295 297 299 300 302 302 302 302 299 300 294 297 296 298 301 302 306 304 299 298 299 299 296 296 296 297 299 300 304 304 301 301 301 301 300 300 301 301 303 303 302 302 303
301 292 297 295 303 302 299 302 302 301 299 297 296 293 301 304 301 299 297 298 298 297 297 297 298 298 298 299 302 303 301 302 301 301 303 304 303 304 303 303 303 303 302 299
299 296 294 291 300 299 293 300 299 300 300 297 290 295 300 296 297 296 295 297 296 297 298 297 297 297 302 301 303 300 301 305 303 304 304 303 302 301 301 301 300 300 299 298
299 297 294 290 293 285 300 306 304 299 299 300 297 299 298 297 297 296 296 295 296 297 297 297 297 301 302 302 301 301 302 304 303 303 302 302 300 300 300 299 298 298 299 299
303 298 292 287 286 297 302 304 302 299 295 301 296 298 298 298 296 294 298 298 298 299 297 298 302 303 303 303 302 301 300 302 303 302 301 300 301 300 299 298 298 298 299 299
305 301 294 291 287 286 301 304 308 303 289 300 298 297 297 297 287 290 296 302 300 299 299 298 299 299 302 302 301 300 301 300 301 301 301 301 301 298 296 298 299 300 301 301
295 295 292 290 287 294 303 305 306 288 288 299 299 297 295 292 292 295 301 299 298 298 301 300 298 298 301 302 301 299 300 300 302 302 302 300 298 297 299 299 299 300 300 301
295 292 290 290 287 285 306 305 295 297 298 298 298 296 295 296 297 300 300 297 299 300 299 300 297 300 302 302 301 300 300 302 301 301 302 299 300 301 300 299 299 299 299 299
293 296 293 294 293 301 302 303 302 299 298 297 297 297 298 297 297 300 296 297 300 299 297 301 299 301 302 302 302 300 301 300 301 301 301 300 300 300 299 298 299 298 298 298
301 303 298 297 302 301 303 302 301 300 299 300 299 299 298 297 300 297 300 298 300 297 300 301 301 301 301 302 302 302 301 302 301 300 301 300 299 299 299 300 300 299 297 298
301 302 299 298 301 303 302 301 301 301 301 300 300 301 300 300 298 301 297 300 300 301 301 300 301 301 301 302 303 303 301 301 301 298 300 301 302 301 300 299 299 300 299 296
302 300 296 295 302 300 300 302 303 301 300 301 301 300 300 299 301 300 300 301 301 300 301 301 301 301 301 302 303 302 301 302 300 301 302 301 301 300 298 298 301 297 296 296
Wind_Speed
3 4 6 12 7 3 7 7 8 5 7 20 20 19 14 13 15 17 13 12 13 14 14 12 10 9 10 9 9 8 9 8 7 4 5 4 4 3 6 5 7 5 2 2
5 4 13 7 6 7 8 6 2 3 10 21 16 19 14 11 13 14 15 13 13 13 14 13 11 10 10 7 6 8 8 7 5 3 2 3 3 3 2 5 8 9 7 3
7 4 4 7 7 8 6 7 6 1 3 19 24 8 12 14 16 16 15 13 12 11 13 10 11 11 10 10 9 8 7 6 5 7 4 5 3 2 4 5 4 5 6 6
4 5 11 10 10 6 9 6 8 7 8 3 4 5 6 10 12 12 11 10 10 10 12 9 8 9 7 5 6 5 6 7 7 7 5 3 5 4 2 6 4 7 7 9
4 7 8 11 3 5 3 4 5 3 5 4 9 10 2 7 9 9 8 9 9 9 7 6 5 3 3 2 3 3 1 1 1 2 4 3 6 3 5 4 6 7 5 6
3 0 6 5 3 5 1 9 10 7 4 4 5 7 3 4 4 5 6 7 6 5 3 3 4 4 3 4 2 5 4 4 6 6 7 7 8 5 4 4 4 5 4 4
6 6 3 4 7 9 12 8 5 7 7 5 2 11 3 9 8 8 7 5 5 4 4 3 3 2 4 4 5 5 4 5 5 5 6 6 6 6 5 5 4 6 5 5
4 7 8 11 4 4 3 7 6 4 3 7 8 5 4 6 8 6 5 3 3 2 2 5 5 5 5 5 3 4 4 4 6 6 7 6 5 3 3 3 3 2 3 4
4 2 3 7 3 3 5 3 2 4 1 3 4 4 8 8 6 6 6 5 5 5 5 4 5 5 6 5 5 5 5 5 5 7 6 7 6 6 4 4 3 3 4 3
1 2 3 6 9 12 6 4 6 5 2 3 4 3 4 9 6 6 7 7 6 6 4 4 3 6 5 3 3 4 4 4 5 7 5 2 4 5 5 5 5 5 4 4
3 4 8 6 6 4 8 7 4 3 4 2 3 2 1 3 4 6 8 5 4 4 4 3 6 4 4 2 3 5 5 6 7 7 3 3 5 6 6 6 6 5 4 4
5 4 1 4 5 6 3 3 2 5 3 3 7 5 3 3 3 3 3 4 5 5 4 6 3 3 3 5 6 4 6 6 5 5 4 5 6 7 6 5 6 5 5 6
3 4 4 10 10 8 6 6 4 5 4 1 4 3 2 2 3 4 7 3 3 7 7 4 6 6 6 6 6 6 6 6 6 6 5 6 6 6 6 6 6 5 5 4
7 4 6 5 8 2 6 7 5 4 4 4 1 5 5 3 5 6 3 4 7 5 5 5 5 6 6 6 6 6 7 6 6 6 6 6 6 6 6 6 6 6 5 4
6 3 4 5 6 12 9 9 9 7 3 3 5 2 3 6 5 4 5 7 6 6 7 5 3 4 5 6 7 6 7 7 6 6 5 5 5 6 6 6 6 6 6 6
4 1 3 4 10 15 12 9 10 12 9 6 5 0 4 6 11 11 7 5 7 6 6 6 5 6 6 6 6 6 7 6 6 6 5 5 6 6 6 6 6 5 5 5
3 3 3 4 3 5 9 9 8 7 6 2 1 1 10 7 8 5 6 7 5 4 4 5 6 5 5 6 6 6 6 5 5 5 7 7 6 6 6 6 6 5 5 4
4 3 3 2 6 6 4 6 7 9 4 5 6 6 7 7 5 5 5 5 5 4 6 7 6 6 6 5 7 6 6 6 5 6 6 7 6 6 7 7 6 6 4 4
6 5 4 4 2 3 4 7 5 5 0 2 6 9 10 10 10 5 2 3 2 2 4 4 5 4 5 6 6 6 7 6 6 7 6 6 6 6 7 7 5 4 4 4
7 7 6 2 3 3 1 7 3 5 2 3 5 4 9 6 4 3 5 2 6 6 4 6 6 5 8 7 6 7 6 5 7 5 5 6 5 5 6 6 8 6 4 5
3 3 4 1 2 0 3 6 3 6 6 1 5 5 4 4 4 5 1 5 4 4 5 5 6 5 5 5 5 7 6 7 5 5 5 5 5 5 4 5 5 6 6 6
3 4 1 3 3 1 4 4 4 5 2 5 7 7 9 7 6 4 5 5 6 5 5 5 5 5 4 5 5 6 7 5 5 5 6 6 6 6 6 7 6 6 6 6
2 6 6 5 6 5 2 7 5 5 7 4 9 5 8 7 5 6 4 6 5 5 3 3 4 4 6 6 5 5 5 5 5 6 6 5 6 6 5 6 7 6 7 6
3 4 5 5 0 4 6 4 6 7 8 9 8 7 6 7 5 6 5 4 3 3 3 4 4 6 5 5 5 5 4 4 4 5 4 3 4 5 6 4 5 4 5 5
5 4 6 3 2 3 2 5 8 9 12 9 7 7 7 6 6 6 4 5 3 3 3 3 3 3 4 4 4 4 5 4 5 6 5 5 3 4 3 2 3 4 3 1
0 6 4 6 9 5 4 6 9 12 10 9 10 5 4 6 6 6 5 4 3 4 3 3 3 4 4 4 4 4 3 4 5 5 4 5 4 4 4 4 3 2 4 6
Wind_Direction
323 88 253 262 224 201 103 67 51 354 77 68 90 92 85 92 90 99 98 88 77 64 74 62 71 75 78 66 50 40 32 16 25 352 333 5 18 333 345 349 344 313 321 141
23 225 228 232 68 75 62 54 13 323 81 93 105 93 93 78 82 99 104 92 83 73 54 48 45 49 54 39 35 31 32 24 18 10 328 13 312 2 332 346 345 332 346 283
145 230 46 81 61 51 33 32 358 325 106 113 112 83 103 83 75 76 74 86 86 88 78 51 46 41 37 21 12 27 19 12 20 20 16 9 328 277 14 336 308 329 304 299
77 354 79 47 33 68 33 330 9 4 39 301 181 119 101 97 82 66 51 51 60 59 70 68 45 42 24 29 360 3 22 6 360 17 346 2 335 348 330 298 279 298 315 299
292 71 65 62 76 71 247 337 351 10 9 70 354 86 131 145 71 64 69 70 70 73 87 88 96 130 208 313 59 350 356 241 352 264 283 340 295 290 269 290 323 322 319 315
39 283 60 155 161 100 251 28 18 26 31 45 312 108 27 56 127 111 97 93 90 93 116 189 218 235 246 252 274 275 277 309 325 314 301 278 279 316 6 337 322 314 317 328
359 343 11 36 28 4 46 47 358 0 8 239 30 70 101 98 101 125 142 133 144 164 148 248 261 331 332 325 288 298 340 343 337 3 4 352 355 349 332 301 300 327 331 341
78 9 19 338 51 331 309 134 150 242 226 266 32 72 102 136 123 110 95 148 125 190 218 266 300 297 293 309 358 5 18 351 356 357 336 324 335 329 331 354 0 356 338 335
64 323 336 34 12 70 300 14 197 117 10 64 115 103 141 130 123 142 168 200 217 219 227 252 289 318 1 37 59 48 359 324 334 334 343 351 4 352 325 321 300 340 319 287
341 33 17 320 43 357 62 269 20 7 314 279 80 78 334 154 188 182 193 205 220 196 189 253 341 41 50 59 38 358 338 323 321 336 355 7 315 314 320 311 348 343 304 307
60 77 308 32 33 6 349 348 33 125 104 26 350 161 45 103 150 166 204 172 212 230 244 26 54 58 34 11 341 332 347 342 344 343 334 327 321 329 327 316 319 312 322 332
339 119 33 261 267 53 60 342 89 116 316 118 149 235 324 150 169 192 190 220 247 234 58 79 58 22 356 354 12 336 339 349 337 325 342 331 354 320 311 334 347 20 21 8
352 20 20 344 346 358 43 353 41 90 84 202 143 216 229 123 165 219 239 278 113 53 59 31 26 11 4 15 349 336 332 327 338 337 348 8 340 330 11 17 13 6 5 11
94 92 143 190 235 251 62 23 18 90 101 148 254 164 217 215 215 224 225 122 90 72 40 30 44 25 3 340 328 327 321 345 344 358 20 26 2 357 13 15 10 6 355 22
86 54 13 307 316 85 92 67 54 67 67 92 170 223 201 237 237 244 97 92 62 44 60 47 39 347 333 337 330 327 352 355 350 28 31 25 11 21 34 30 15 13 23 31
20 270 53 320 72 80 64 29 80 86 90 88 134 175 155 76 76 76 80 90 66 69 32 18 354 330 344 340 347 355 358 352 16 21 27 27 14 15 13 7 1 11 18 17
102 112 65 289 331 130 46 40 77 79 42 110 48 355 110 78 85 88 72 91 84 48 18 346 328 327 341 7 358 7 345 354 34 32 33 33 22 6 6 355 360 355 359 5
130 84 101 248 5 51 122 114 146 108 80 70 78 104 112 125 112 85 103 95 58 19 357 343 348 6 3 5 14 1 356 344 39 47 29 20 16 4 6 5 359 355 337 1
104 106 66 94 61 137 176 165 210 175 289 70 111 121 135 117 89 28 9 123 115 45 16 11 24 14 19 22 2 13 21 32 42 33 26 11 8 9 7 358 342 336 354 1
62 76 105 91 99 166 100 311 291 118 20 29 118 122 152 177 74 250 276 64 66 47 47 44 19 10 25 17 18 30 13 15 33 33 19 10 7 7 6 340 351 352 19 30
27 14 104 124 134 324 332 331 18 84 230 63 113 125 139 104 176 194 212 77 98 75 53 51 40 34 14 354 17 31 17 20 6 8 17 7 1 1 354 346 359 4 14 25
138 116 319 54 79 47 329 16 98 187 100 125 98 126 108 117 131 136 105 75 84 60 44 48 43 19 4 18 21 17 12 342 11 7 17 11 16 20 21 23 8 10 13 19
33 164 165 149 197 233 338 122 97 136 123 99 117 133 127 120 125 119 106 82 84 61 48 44 37 23 24 17 14 15 350 22 15 13 11 14 29 25 15 14 14 11 8 16
345 115 107 82 332 141 112 97 119 115 114 120 121 132 121 114 113 107 91 95 99 78 51 37 36 37 23 15 10 357 357 17 12 359 344 4 35 21 13 21 27 19 15 5
207 76 120 56 345 92 173 143 131 104 117 109 113 121 121 104 107 118 98 87 71 52 48 28 41 51 18 357 356 3 352 20 359 357 354 4 15 26 19 6 2 8 37 357
23 159 146 207 193 152 168 137 129 125 131 126 119 105 119 110 111 108 104 90 68 48 47 36 30 37 26 358 358 18 349 26 16 5 6 12 24 18 10 21 16 2 4 26